User: anonymous   Login
Location: Caltech
(34.1382°N, 118.1253°W)
Time: 19:11:50
(UTC-07:00)
Language:

GPS 2-04 Rocket1 - Orbit

View from above orbital plane
View from above orbital plane
View from above satellite
View from above satellite

Ground track
Ground track

The orbit data is extracted from the following two-line orbital elements,

1 20303U 89085B   16240.55165887  .00003261  00000-0  12186-3 0  9999
2 20303  35.6301  71.1578 0110242  99.0516 262.2703 15.21586417455766
Epoch (UTC): 27 August 2016 13:14:23
Eccentricity: 0.0110242
inclination: 35.6301°
perigee height: 425 km
apogee height: 577 km
right ascension of ascending node: 71.1578°
argument of perigee: 99.0516°
revolutions per day: 15.21586417
mean anomaly at epoch: 262.2703°
orbit number at epoch: 45576

The dashed part of the orbit path shows where the satellite is in the earth's shadow,  

DLR